Location: Domont
(49.0278°N, 2.3264°E)
Time: 04:06:13
(UTC+00:00)

NANOSAT C BR1 - Visible Passes

Search period start: 29 June 2022 00:00
Search period end: 09 July 2022 00:00
Orbit: 583 x 601 km, 98.0° (Epoch: 28 June)

Date Brightness Start Highest point End Pass type
(mag) Time Alt. Az. Time Alt. Az. Time Alt. Az.
29 Jun ? 00:56:19 10° NE 00:59:02 17° E 01:01:46 10° SE visible
29 Jun ? 02:30:48 10° N 02:34:56 56° WNW 02:38:46 12° SSW visible
30 Jun ? 01:04:44 10° NE 01:07:52 20° E 01:11:00 10° SE visible
30 Jun ? 02:39:36 10° N 02:43:38 46° WNW 02:47:35 10° SW visible
01 Jul ? 01:13:13 10° NE 01:16:40 24° E 01:19:48 11° SE visible
01 Jul ? 02:48:25 10° N 02:52:20 38° WNW 02:56:14 10° SW visible
02 Jul ? 01:21:46 10° NE 01:25:28 29° E 01:28:37 13° SSE visible
02 Jul ? 02:57:16 10° N 03:01:00 32° WNW 03:04:45 10° SW visible
03 Jul ? 01:30:21 10° NNE 01:34:15 35° E 01:37:25 14° SSE visible
03 Jul ? 03:06:07 10° N 03:09:40 27° WNW 03:13:13 10° WSW visible
04 Jul ? 01:38:59 10° NNE 01:43:01 43° E 01:46:13 15° SSE visible
05 Jul ? 01:47:37 10° NNE 01:51:46 52° E 01:55:00 16° S visible
06 Jul ? 01:56:18 10° NNE 02:00:30 64° ESE 02:03:48 16° S visible
07 Jul ? 02:04:59 10° NNE 02:09:14 79° ESE 02:12:35 16° S visible
08 Jul ? 00:40:34 10° ENE 00:41:49 11° E 00:43:03 10° ESE visible
08 Jul ? 02:13:42 10° NNE 02:17:57 85° WNW 02:21:22 16° SSW visible
